Location: Melbourne
(37.8170°S, 144.9670°E)
Time: 05:37:57
(UTC+11:00)

ERBS - Visible Passes

Search period start: 01 November 2014 00:00
Search period end: 11 November 2014 00:00
Orbit: 459 x 489 km, 57.0° (Epoch: 31 October)

Date Brightness Start Highest point End Pass type
(mag) Time Alt. Az. Time Alt. Az. Time Alt. Az.
04 Nov 3.7 05:37:22 10° NNW 05:40:54 41° NE 05:44:29 10° SE visible
05 Nov 4.0 05:07:55 10° N 05:11:16 32° NE 05:14:42 10° ESE visible
06 Nov 4.3 04:39:16 14° N 04:41:38 26° ENE 04:44:49 10° ESE visible
07 Nov 4.5 04:10:52 18° NNE 04:11:58 21° ENE 04:14:51 10° ESE visible
08 Nov 4.8 03:42:21 17° ENE 03:42:21 17° ENE 03:44:45 10° E visible
08 Nov 3.2 05:16:27 14° WNW 05:19:29 43° SW 05:23:09 10° SSE visible
09 Nov 5.4 03:13:44 12° E 03:13:44 12° E 03:14:26 10° E visible
09 Nov 2.9 04:47:49 26° WNW 04:49:41 54° SW 04:53:25 10° SSE visible
10 Nov 2.6 04:19:05 51° WNW 04:19:51 68° SW 04:23:39 10° SE visible
